TimeCST,TemperatureF,Dew PointF,Humidity,Sea Level PressureIn,VisibilityMPH,Wind Direction,Wind SpeedMPH,Gust SpeedMPH,PrecipitationIn,Events,Conditions,WindDirDegrees,DateUTC
12:00 AM,83,77,77,29.91,12,East,11.5,,,,Mostly Cloudy,100,2013-07-04 06:00:00
3:00 AM,73,72,97,29.92,2,SSE,11.5,,,Rain-Thunderstorm,Heavy Thunderstorms and Rain,160,2013-07-04 09:00:00
5:00 AM,73.4,71.6,94,29.92,6.2,Calm,Calm,-,N/A,Rain-Thunderstorm,Light Thunderstorms and Rain,0,2013-07-04 11:00:00
6:00 AM,74,72,94,29.94,7,Calm,Calm,,,Rain-Thunderstorm,Thunderstorms and Rain,,2013-07-04 12:00:00
6:00 AM,73.4,73.4,100,29.92,6.2,Calm,Calm,-,N/A,Rain-Thunderstorm,Light Thunderstorms and Rain,0,2013-07-04 12:00:00
7:00 AM,75.2,73.4,94,29.95,6.2,Calm,Calm,-,N/A,Rain-Thunderstorm,Light Thunderstorms and Rain,0,2013-07-04 13:00:00
8:00 AM,77.0,75.2,94,29.95,6.2,Calm,Calm,-,N/A,Rain-Thunderstorm,Light Thunderstorms and Rain,0,2013-07-04 14:00:00
9:00 AM,77,76,95,29.98,9,NE,3.5,,,Thunderstorm,Thunderstorm,50,2013-07-04 15:00:00
9:00 AM,77.0,75.2,94,29.97,6.2,NE,3.5,-,N/A,Thunderstorm,Thunderstorm,50,2013-07-04 15:00:00
10:00 AM,77.0,75.2,94,29.96,6.2,ENE,5.8,-,N/A,,Mostly Cloudy,70,2013-07-04 16:00:00
11:00 AM,80.6,77.0,89,29.96,6.2,NE,3.5,-,N/A,Rain,Light Rain Showers,40,2013-07-04 17:00:00
12:00 PM,80,77,89,29.96,9,East,6.9,,,,,80,2013-07-04 18:00:00
12:00 PM,80.6,77.0,89,29.96,6.2,East,6.9,-,N/A,Rain,Light Rain Showers,80,2013-07-04 18:00:00
1:00 PM,80.6,77.0,89,29.93,6.2,NE,8.1,-,N/A,,Mostly Cloudy,50,2013-07-04 19:00:00
2:00 PM,82.4,78.8,89,29.91,6.2,NE,8.1,-,N/A,,Mostly Cloudy,50,2013-07-04 20:00:00
3:00 PM,82,78,83,29.90,1,East,8.1,,,,Partly Cloudy,80,2013-07-04 21:00:00
3:00 PM,82.4,77.0,84,29.90,6.2,East,8.1,-,N/A,,Mostly Cloudy,80,2013-07-04 21:00:00
4:00 PM,82.4,78.8,89,29.87,6.2,ENE,9.2,-,N/A,,Mostly Cloudy,70,2013-07-04 22:00:00
5:00 PM,82.4,77.0,84,29.88,6.2,East,6.9,-,N/A,,Mostly Cloudy,90,2013-07-04 23:00:00
6:00 PM,82,78,85,29.90,12,East,5.8,,,,Partly Cloudy,90,2013-07-05 00:00:00
6:00 PM,82.4,78.8,89,29.89,6.2,East,5.8,-,N/A,,Mostly Cloudy,90,2013-07-05 00:00:00
9:00 PM,80,77,86,29.95,12,East,3.5,,,,Scattered Clouds,100,2013-07-05 03:00:00